| time (UTC) | temp F | wind direction | speed MPH | gust MPH | rain 1hr in | rain 24hr in | rain mn in | humidity % | barometer mb |
| 20260505090003 | 62 | 117 | 1.0 | 2.0 | 0.00 | 0.01 | 0.01 | 72 | 1005.8 |
| 20260505085501 | 61 | 187 | 1.0 | 2.0 | 0.00 | 0.01 | 0.01 | 72 | 1005.7 |
| 20260505084959 | 61 | 53 | 2.0 | 3.0 | 0.00 | 0.01 | 0.01 | 73 | 1005.5 |
| 20260505084457 | 62 | 153 | 1.0 | 1.0 | 0.00 | 0.01 | 0.01 | 73 | 1005.4 |
| 20260505083954 | 62 | 248 | 1.0 | 2.0 | 0.00 | 0.01 | 0.01 | 71 | 1005.5 |
| 20260505083452 | 62 | 240 | 2.0 | 2.0 | 0.00 | 0.01 | 0.01 | 71 | 1005.4 |
| 20260505082948 | 61 | 207 | 3.0 | 3.0 | 0.00 | 0.01 | 0.01 | 73 | 1005.3 |
| 20260505082444 | 61 | 156 | 2.0 | 3.0 | 0.00 | 0.01 | 0.01 | 75 | 1005.4 |
| 20260505081941 | 61 | 211 | 2.0 | 2.0 | 0.00 | 0.01 | 0.01 | 76 | 1005.1 |
| 20260505081438 | 61 | 188 | 3.0 | 3.0 | 0.00 | 0.01 | 0.01 | 77 | 1005.2 |
| 20260505080934 | 61 | 157 | 2.0 | 3.0 | 0.00 | 0.01 | 0.01 | 78 | 1005.0 |
| 20260505080430 | 60 | 179 | 2.0 | 2.0 | 0.00 | 0.01 | 0.01 | 80 | 1005.2 |
| 20260505075926 | 61 | 210 | 2.0 | 2.0 | 0.05 | 0.01 | 0.01 | 76 | 1005.1 |
| 20260505075423 | 63 | 235 | 3.0 | 4.0 | 0.05 | 0.01 | 0.01 | 71 | 1005.0 |
| 20260505074920 | 63 | 198 | 3.0 | 4.0 | 0.00 | 0.00 | 0.00 | 70 | 1004.9 |
| 20260505074417 | 62 | 276 | 2.0 | 4.0 | 0.00 | 0.00 | 0.00 | 69 | 1004.7 |
| 20260505073914 | 61 | 282 | 3.0 | 4.0 | 0.00 | 0.00 | 0.00 | 73 | 1004.7 |
| 20260505073412 | 61 | 251 | 2.0 | 3.0 | 0.00 | 0.00 | 0.00 | 79 | 1004.7 |
| 20260505072909 | 61 | 253 | 4.0 | 7.0 | 0.00 | 0.00 | 0.00 | 80 | 1004.9 |
| 20260505072405 | 65 | 237 | 3.0 | 4.0 | 0.00 | 0.00 | 0.00 | 67 | 1004.8 |
| 20260505071901 | 64 | 300 | 5.0 | 6.0 | 0.00 | 0.00 | 0.00 | 63 | 1004.5 |
| 20260505071358 | 64 | 254 | 2.0 | 3.0 | 0.00 | 0.00 | 0.00 | 67 | 1004.5 |
| 20260505070856 | 63 | 177 | 3.0 | 3.0 | 0.00 | 0.00 | 0.00 | 67 | 1004.6 |
| 20260505070352 | 65 | 252 | 1.0 | 2.0 | 0.00 | 0.00 | 0.00 | 66 | 1004.8 |
| 20260505065848 | 66 | 82 | 1.0 | 2.0 | 0.00 | 0.00 | 0.00 | 61 | 1004.7 |
| 20260505065345 | 66 | 301 | 3.0 | 3.0 | 0.00 | 0.00 | 0.00 | 61 | 1004.4 |
| 20260505064842 | 65 | 254 | 2.0 | 2.0 | 0.00 | 0.00 | 0.00 | 61 | 1004.6 |
| 20260505064339 | 66 | 143 | 2.0 | 3.0 | 0.00 | 0.00 | 0.00 | 62 | 1004.3 |
| 20260505063837 | 65 | 106 | 2.0 | 3.0 | 0.00 | 0.00 | 0.00 | 61 | 1004.6 |
| 20260505063332 | 65 | 25 | 1.0 | 2.0 | 0.00 | 0.00 | 0.00 | 61 | 1004.6 |
| 20260505062829 | 66 | 289 | 2.0 | 3.0 | 0.00 | 0.00 | 0.00 | 61 | 1004.5 |
| 20260505062327 | 66 | 233 | 2.0 | 3.0 | 0.00 | 0.00 | 0.00 | 60 | 1004.5 |
| 20260505061823 | 66 | 10 | 2.0 | 2.0 | 0.00 | 0.00 | 0.00 | 61 | 1004.8 |
| 20260505061322 | 66 | 252 | 3.0 | 3.0 | 0.00 | 0.00 | 0.00 | 61 | 1004.7 |
| 20260505060819 | 65 | 223 | 2.0 | 3.0 | 0.00 | 0.00 | 0.00 | 63 | 1004.9 |
| 20260505060316 | 65 | 288 | 2.0 | 3.0 | 0.00 | 0.00 | 0.00 | 62 | 1004.9 |
| 20260505055811 | 66 | 174 | 2.0 | 2.0 | 0.00 | 0.00 | 0.00 | 62 | 1004.9 |
| 20260505055307 | 66 | 146 | 1.0 | 2.0 | 0.00 | 0.00 | 0.00 | 61 | 1005.2 |
| 20260505054805 | 65 | 122 | 1.0 | 2.0 | 0.00 | 0.00 | 0.00 | 62 | 1005.1 |
| 20260505054302 | 64 | 165 | 1.0 | 2.0 | 0.00 | 0.00 | 0.00 | 64 | 1005.3 |
| 20260505053800 | 64 | 284 | 2.0 | 2.0 | 0.00 | 0.00 | 0.00 | 67 | 1005.4 |
| 20260505053257 | 63 | 122 | 2.0 | 2.0 | 0.00 | 0.00 | 0.00 | 68 | 1005.1 |
| 20260505052754 | 63 | 151 | 1.0 | 1.0 | 0.00 | 0.00 | 0.00 | 70 | 1005.4 |
| 20260505052251 | 63 | 167 | 1.0 | 2.0 | 0.00 | 0.00 | 0.00 | 70 | 1005.5 |
| 20260505051748 | 63 | 122 | 0.0 | 1.0 | 0.00 | 0.00 | 0.00 | 69 | 1005.5 |
| 20260505051246 | 63 | 109 | 0.0 | 0.0 | 0.00 | 0.00 | 0.00 | 70 | 1005.5 |
| 20260505050743 | 63 | 152 | 1.0 | 1.0 | 0.00 | 0.00 | 0.00 | 68 | 1005.4 |
| 20260505050242 | 63 | 122 | 1.0 | 1.0 | 0.00 | 0.00 | 0.00 | 70 | 1005.4 |
| 20260505041712 | 64 | 308 | 3.0 | 4.0 | 0.00 | 0.00 | 0.00 | 68 | 1005.5 |
| 20260505041209 | 64 | 196 | 1.0 | 2.0 | 0.00 | 0.00 | 0.00 | 69 | 1005.3 |
| 20260505040706 | 64 | 176 | 2.0 | 2.0 | 0.00 | 0.00 | 0.00 | 68 | 1005.4 |
| 20260505040203 | 64 | 181 | 1.0 | 2.0 | 0.00 | 0.00 | 0.00 | 68 | 1005.4 |
| 20260505035700 | 64 | 103 | 2.0 | 3.0 | 0.00 | 0.00 | 0.00 | 67 | 1005.4 |
| 20260505035156 | 64 | 316 | 2.0 | 2.0 | 0.00 | 0.00 | 0.00 | 68 | 1005.3 |
| 20260505034652 | 64 | 176 | 3.0 | 4.0 | 0.00 | 0.00 | 0.00 | 69 | 1005.4 |
| 20260505034150 | 64 | 170 | 1.0 | 1.0 | 0.00 | 0.00 | 0.00 | 70 | 1005.4 |
| 20260505033646 | 64 | 151 | 1.0 | 1.0 | 0.00 | 0.00 | 0.00 | 71 | 1005.3 |
| 20260505033144 | 64 | 142 | 1.0 | 1.0 | 0.00 | 0.00 | 0.00 | 70 | 1005.5 |
| 20260505032642 | 64 | 252 | 2.0 | 2.0 | 0.00 | 0.00 | 0.00 | 69 | 1005.6 |
| 20260505032138 | 64 | 181 | 1.0 | 1.0 | 0.00 | 0.00 | 0.00 | 69 | 1005.5 |
| 20260505031636 | 65 | 83 | 0.0 | 0.0 | 0.00 | 0.00 | 0.00 | 69 | 1005.6 |
| 20260505031131 | 64 | 167 | 1.0 | 1.0 | 0.00 | 0.00 | 0.00 | 69 | 1005.3 |
| 20260505030629 | 64 | 175 | 1.0 | 2.0 | 0.00 | 0.00 | 0.00 | 68 | 1005.5 |
| 20260505030124 | 64 | 113 | 1.0 | 1.0 | 0.00 | 0.00 | 0.00 | 71 | 1005.5 |
| 20260505025620 | 64 | 91 | 0.0 | 1.0 | 0.00 | 0.00 | 0.00 | 70 | 1005.4 |
| 20260505025119 | 64 | 138 | 0.0 | 1.0 | 0.00 | 0.00 | 0.00 | 69 | 1005.5 |
| 20260505024616 | 64 | 133 | 0.0 | 0.0 | 0.00 | 0.00 | 0.00 | 70 | 1005.4 |
| 20260505024114 | 64 | 157 | 1.0 | 1.0 | 0.00 | 0.00 | 0.00 | 69 | 1005.5 |
| 20260505023611 | 64 | 139 | 2.0 | 3.0 | 0.00 | 0.00 | 0.00 | 70 | 1005.6 |
| 20260505023108 | 64 | 115 | 0.0 | 0.0 | 0.00 | 0.00 | 0.00 | 71 | 1005.7 |
| 20260505022606 | 64 | 102 | 0.0 | 1.0 | 0.00 | 0.00 | 0.00 | 69 | 1005.5 |
| 20260505022102 | 64 | 114 | 0.0 | 1.0 | 0.00 | 0.00 | 0.00 | 69 | 1005.6 |
| 20260505021559 | 64 | 123 | 1.0 | 1.0 | 0.00 | 0.00 | 0.00 | 70 | 1005.7 |
| 20260505021056 | 64 | 135 | 0.0 | 1.0 | 0.00 | 0.00 | 0.00 | 70 | 1005.7 |
| 20260505020555 | 64 | 96 | 0.0 | 0.0 | 0.00 | 0.00 | 0.00 | 70 | 1005.5 |
| 20260505020053 | 64 | 130 | 2.0 | 2.0 | 0.00 | 0.00 | 0.00 | 69 | 1005.5 |
| 20260505015550 | 64 | 159 | 2.0 | 2.0 | 0.00 | 0.00 | 0.00 | 69 | 1005.3 |
| 20260505015046 | 64 | 128 | 1.0 | 3.0 | 0.00 | 0.00 | 0.00 | 69 | 1005.5 |
| 20260505014543 | 64 | 110 | 0.0 | 0.0 | 0.00 | 0.00 | 0.00 | 70 | 1005.6 |
| 20260505014041 | 64 | 119 | 0.0 | 1.0 | 0.00 | 0.00 | 0.00 | 69 | 1005.6 |
| 20260505013537 | 64 | 110 | 0.0 | 0.0 | 0.00 | 0.00 | 0.00 | 69 | 1005.5 |
| 20260505013035 | 64 | 118 | 1.0 | 1.0 | 0.00 | 0.00 | 0.00 | 69 | 1005.5 |
| 20260505012533 | 64 | 111 | 0.0 | 1.0 | 0.00 | 0.00 | 0.00 | 68 | 1005.2 |
| 20260505012030 | 64 | 178 | 1.0 | 2.0 | 0.00 | 0.00 | 0.00 | 69 | 1005.4 |
| 20260505011525 | 64 | 137 | 2.0 | 2.0 | 0.00 | 0.00 | 0.00 | 69 | 1005.5 |
| 20260505011023 | 64 | 106 | 0.0 | 0.0 | 0.00 | 0.00 | 0.00 | 69 | 1005.3 |
| 20260505010518 | 64 | 135 | 1.0 | 2.0 | 0.00 | 0.00 | 0.00 | 68 | 1005.3 |
| 20260505010015 | 64 | 133 | 1.0 | 1.0 | 0.00 | 0.00 | 0.00 | 68 | 1005.2 |
| 20260505005511 | 64 | 111 | 0.0 | 0.0 | 0.00 | 0.00 | 0.00 | 68 | 1005.2 |
| 20260505005009 | 64 | 142 | 0.0 | 1.0 | 0.00 | 0.00 | 0.00 | 68 | 1005.2 |
| 20260505004506 | 64 | 100 | 0.0 | 0.0 | 0.00 | 0.00 | 0.00 | 67 | 1005.3 |
| 20260505004002 | 65 | 113 | 0.0 | 0.0 | 0.00 | 0.00 | 0.00 | 66 | 1005.1 |
| 20260505003459 | 65 | 110 | 0.0 | 0.0 | 0.00 | 0.00 | 0.00 | 66 | 1005.3 |
| 20260505002956 | 65 | 148 | 0.0 | 1.0 | 0.00 | 0.00 | 0.00 | 65 | 1005.2 |
| 20260505002452 | 66 | 151 | 2.0 | 3.0 | 0.00 | 0.00 | 0.00 | 63 | 1005.2 |
| 20260505001950 | 66 | 99 | 2.0 | 2.0 | 0.00 | 0.00 | 0.00 | 63 | 1005.2 |
| 20260505001448 | 66 | 175 | 3.0 | 4.0 | 0.00 | 0.00 | 0.00 | 62 | 1005.3 |
| 20260505000944 | 66 | 119 | 0.0 | 1.0 | 0.00 | 0.00 | 0.00 | 61 | 1005.2 |
| 20260505000442 | 66 | 105 | 1.0 | 1.0 | 0.00 | 0.00 | 0.00 | 61 | 1005.2 |
| 20260504235939 | 66 | 141 | 2.0 | 2.0 | 0.00 | 0.00 | 0.00 | 61 | 1005.4 |
| 20260504235436 | 66 | 145 | 0.0 | 1.0 | 0.00 | 0.00 | 0.00 | 62 | 1005.2 |
| 20260504234932 | 66 | 263 | 1.0 | 2.0 | 0.00 | 0.00 | 0.00 | 61 | 1005.1 |
| 20260504234430 | 66 | 97 | 0.0 | 1.0 | 0.00 | 0.00 | 0.00 | 60 | 1005.2 |
| 20260504233926 | 67 | 134 | 1.0 | 1.0 | 0.00 | 0.00 | 0.00 | 59 | 1005.1 |
| 20260504233422 | 67 | 182 | 1.0 | 1.0 | 0.00 | 0.00 | 0.00 | 59 | 1005.1 |
| 20260504232919 | 67 | 218 | 2.0 | 2.0 | 0.00 | 0.00 | 0.00 | 58 | 1005.2 |
| 20260504232416 | 67 | 142 | 3.0 | 4.0 | 0.00 | 0.00 | 0.00 | 57 | 1005.3 |
| 20260504231913 | 67 | 177 | 2.0 | 3.0 | 0.00 | 0.00 | 0.00 | 59 | 1005.4 |
| 20260504231409 | 68 | 282 | 3.0 | 6.0 | 0.00 | 0.00 | 0.00 | 57 | 1005.2 |
| 20260504230906 | 68 | 293 | 3.0 | 3.0 | 0.00 | 0.00 | 0.00 | 56 | 1005.2 |
| 20260504230403 | 68 | 93 | 3.0 | 6.0 | 0.00 | 0.00 | 0.00 | 55 | 1005.5 |
| 20260504225902 | 69 | 166 | 2.0 | 3.0 | 0.00 | 0.00 | 0.00 | 54 | 1005.3 |
| 20260504225358 | 69 | 230 | 2.0 | 2.0 | 0.00 | 0.00 | 0.00 | 55 | 1005.3 |
| 20260504224856 | 69 | 62 | 2.0 | 2.0 | 0.00 | 0.00 | 0.00 | 51 | 1005.4 |
| 20260504224352 | 70 | 261 | 3.0 | 3.0 | 0.00 | 0.00 | 0.00 | 51 | 1005.2 |
| 20260504223849 | 70 | 107 | 2.0 | 2.0 | 0.00 | 0.00 | 0.00 | 53 | 1005.1 |
| 20260504223344 | 71 | 167 | 1.0 | 1.0 | 0.00 | 0.00 | 0.00 | 53 | 1005.2 |
| 20260504222841 | 70 | 234 | 2.0 | 2.0 | 0.00 | 0.00 | 0.00 | 48 | 1005.5 |
| 20260504222338 | 71 | 271 | 1.0 | 1.0 | 0.00 | 0.00 | 0.00 | 49 | 1005.4 |
| 20260504221837 | 71 | 35 | 3.0 | 6.0 | 0.00 | 0.00 | 0.00 | 50 | 1005.4 |
| 20260504221333 | 71 | 289 | 2.0 | 3.0 | 0.00 | 0.00 | 0.00 | 48 | 1005.5 |
| 20260504220830 | 71 | 282 | 4.0 | 6.0 | 0.00 | 0.00 | 0.00 | 48 | 1005.4 |
| 20260504220327 | 71 | 146 | 4.0 | 4.0 | 0.00 | 0.00 | 0.00 | 48 | 1005.3 |
| 20260504215824 | 70 | 283 | 3.0 | 3.0 | 0.00 | 0.00 | 0.00 | 51 | 1005.3 |
| 20260504215320 | 70 | 234 | 2.0 | 2.0 | 0.00 | 0.00 | 0.00 | 53 | 1005.4 |
| 20260504214816 | 71 | 255 | 3.0 | 4.0 | 0.00 | 0.00 | 0.00 | 53 | 1005.3 |
| 20260504214314 | 70 | 266 | 1.0 | 2.0 | 0.00 | 0.00 | 0.00 | 54 | 1005.2 |
| 20260504213810 | 71 | 75 | 2.0 | 3.0 | 0.00 | 0.00 | 0.00 | 54 | 1005.4 |
| 20260504213306 | 70 | 155 | 2.0 | 2.0 | 0.00 | 0.00 | 0.00 | 53 | 1005.3 |
| 20260504212804 | 70 | 181 | 2.0 | 3.0 | 0.00 | 0.00 | 0.00 | 54 | 1005.6 |
| 20260504212300 | 71 | 133 | 2.0 | 3.0 | 0.00 | 0.00 | 0.00 | 51 | 1005.6 |
| 20260504211757 | 72 | 156 | 4.0 | 6.0 | 0.00 | 0.00 | 0.00 | 54 | 1005.6 |
| 20260504211253 | 72 | 155 | 3.0 | 4.0 | 0.00 | 0.00 | 0.00 | 51 | 1005.6 |
| 20260504210751 | 73 | 104 | 7.0 | 10.0 | 0.00 | 0.00 | 0.00 | 49 | 1005.9 |
| 20260504210248 | 72 | 163 | 2.0 | 3.0 | 0.00 | 0.00 | 0.00 | 50 | 1005.6 |
| 20260504205745 | 72 | 326 | 4.0 | 4.0 | 0.00 | 0.00 | 0.00 | 51 | 1005.7 |
| 20260504205243 | 72 | 140 | 5.0 | 6.0 | 0.00 | 0.00 | 0.00 | 51 | 1005.5 |
| 20260504204741 | 72 | 177 | 3.0 | 3.0 | 0.00 | 0.00 | 0.00 | 49 | 1005.6 |
| 20260504204239 | 73 | 256 | 6.0 | 7.0 | 0.00 | 0.00 | 0.00 | 50 | 1005.5 |
| 20260504203738 | 73 | 264 | 4.0 | 4.0 | 0.00 | 0.00 | 0.00 | 50 | 1005.6 |
| 20260504203235 | 74 | 244 | 4.0 | 4.0 | 0.00 | 0.00 | 0.00 | 49 | 1005.8 |
| 20260504202735 | 74 | 228 | 4.0 | 6.0 | 0.00 | 0.00 | 0.00 | 50 | 1005.9 |
| 20260504202232 | 74 | 99 | 2.0 | 2.0 | 0.00 | 0.00 | 0.00 | 50 | 1005.9 |
| 20260504201729 | 73 | 273 | 3.0 | 3.0 | 0.00 | 0.00 | 0.00 | 50 | 1005.9 |
| 20260504201226 | 73 | 307 | 3.0 | 4.0 | 0.00 | 0.00 | 0.00 | 49 | 1005.8 |
| 20260504200724 | 72 | 273 | 4.0 | 4.0 | 0.00 | 0.00 | 0.00 | 51 | 1005.9 |
| 20260504200220 | 73 | 272 | 4.0 | 4.0 | 0.00 | 0.00 | 0.00 | 48 | 1006.1 |
| 20260504195716 | 74 | 20 | 3.0 | 3.0 | 0.00 | 0.00 | 0.00 | 48 | 1006.0 |
| 20260504195212 | 73 | 112 | 2.0 | 3.0 | 0.00 | 0.00 | 0.00 | 49 | 1006.2 |
| 20260504194709 | 74 | 299 | 2.0 | 4.0 | 0.00 | 0.00 | 0.00 | 53 | 1006.0 |
| 20260504194206 | 74 | 254 | 3.0 | 4.0 | 0.00 | 0.00 | 0.00 | 49 | 1005.8 |
| 20260504193702 | 74 | 178 | 2.0 | 3.0 | 0.00 | 0.00 | 0.00 | 49 | 1006.1 |
| 20260504193200 | 72 | 263 | 2.0 | 3.0 | 0.00 | 0.00 | 0.00 | 53 | 1006.4 |
| 20260504192658 | 73 | 283 | 2.0 | 3.0 | 0.00 | 0.00 | 0.00 | 48 | 1006.2 |
| 20260504192155 | 73 | 53 | 2.0 | 3.0 | 0.00 | 0.00 | 0.00 | 50 | 1006.0 |
| 20260504191654 | 72 | 259 | 4.0 | 4.0 | 0.00 | 0.00 | 0.00 | 51 | 1006.2 |
| 20260504191149 | 73 | 38 | 4.0 | 7.0 | 0.00 | 0.00 | 0.00 | 52 | 1006.4 |
| 20260504190646 | 72 | 146 | 2.0 | 2.0 | 0.00 | 0.00 | 0.00 | 53 | 1006.1 |
| 20260504190143 | 72 | 248 | 1.0 | 2.0 | 0.00 | 0.00 | 0.00 | 51 | 1006.4 |
| 20260504185639 | 72 | 343 | 3.0 | 4.0 | 0.00 | 0.00 | 0.00 | 51 | 1006.4 |
| 20260504185136 | 71 | 310 | 1.0 | 1.0 | 0.00 | 0.00 | 0.00 | 54 | 1006.4 |
| 20260504184632 | 71 | 347 | 1.0 | 2.0 | 0.00 | 0.00 | 0.00 | 52 | 1006.5 |
| 20260504184127 | 70 | 236 | 3.0 | 7.0 | 0.00 | 0.00 | 0.00 | 52 | 1006.6 |
| 20260504183624 | 71 | 102 | 1.0 | 2.0 | 0.00 | 0.00 | 0.00 | 52 | 1006.7 |
| 20260504183122 | 71 | 202 | 3.0 | 3.0 | 0.00 | 0.00 | 0.00 | 53 | 1006.9 |
| 20260504182619 | 72 | 111 | 1.0 | 2.0 | 0.00 | 0.00 | 0.00 | 53 | 1006.7 |
| 20260504182117 | 71 | 95 | 2.0 | 3.0 | 0.00 | 0.00 | 0.00 | 52 | 1006.8 |
| 20260504181614 | 71 | 158 | 0.0 | 0.0 | 0.00 | 0.00 | 0.00 | 57 | 1006.9 |
| 20260504181111 | 70 | 167 | 2.0 | 2.0 | 0.00 | 0.00 | 0.00 | 58 | 1007.2 |
| 20260504180610 | 70 | 97 | 2.0 | 3.0 | 0.00 | 0.00 | 0.00 | 53 | 1006.9 |
| 20260504180109 | 69 | 182 | 2.0 | 2.0 | 0.00 | 0.00 | 0.00 | 54 | 1007.2 |
| 20260504175606 | 69 | 130 | 1.0 | 2.0 | 0.00 | 0.00 | 0.00 | 53 | 1007.1 |
| 20260504175102 | 69 | 241 | 3.0 | 4.0 | 0.00 | 0.00 | 0.00 | 54 | 1007.1 |
| 20260504174600 | 68 | 284 | 5.0 | 6.0 | 0.00 | 0.00 | 0.00 | 56 | 1007.1 |
| 20260504174056 | 69 | 219 | 2.0 | 4.0 | 0.00 | 0.00 | 0.00 | 53 | 1007.2 |
| 20260504173553 | 69 | 299 | 2.0 | 3.0 | 0.00 | 0.00 | 0.00 | 54 | 1007.1 |
| 20260504173051 | 69 | 162 | 2.0 | 2.0 | 0.00 | 0.00 | 0.00 | 57 | 1007.2 |
| 20260504172547 | 68 | 273 | 1.0 | 2.0 | 0.00 | 0.00 | 0.00 | 57 | 1007.1 |
| 20260504172044 | 68 | 187 | 2.0 | 3.0 | 0.00 | 0.00 | 0.00 | 56 | 1007.2 |
| 20260504171541 | 67 | 142 | 4.0 | 4.0 | 0.00 | 0.00 | 0.00 | 56 | 1007.2 |
| 20260504171038 | 67 | 193 | 2.0 | 2.0 | 0.00 | 0.00 | 0.00 | 56 | 1007.4 |
| 20260504170533 | 67 | 276 | 3.0 | 3.0 | 0.00 | 0.00 | 0.00 | 57 | 1007.6 |
| 20260504150917 | 63 | 214 | 4.0 | 4.0 | 0.00 | 0.00 | 0.00 | 56 | 1008.2 |
| 20260504150414 | 63 | 76 | 1.0 | 2.0 | 0.00 | 0.00 | 0.00 | 60 | 1008.4 |
| 20260504140841 | 60 | 8 | 2.0 | 3.0 | 0.00 | 0.00 | 0.00 | 56 | 1008.6 |
| 20260504140336 | 61 | 146 | 1.0 | 2.0 | 0.00 | 0.00 | 0.00 | 58 | 1008.9 |
| 20260504130805 | 57 | 87 | 1.0 | 1.0 | 0.00 | 0.00 | 0.00 | 61 | 1009.0 |
| 20260504130301 | 57 | 97 | 1.0 | 2.0 | 0.00 | 0.00 | 0.00 | 59 | 1008.9 |
| 20260504120225 | 51 | 104 | 0.0 | 0.0 | 0.00 | 0.00 | 0.00 | 70 | 1009.2 |
| 20260504110652 | 48 | 96 | 0.0 | 0.0 | 0.00 | 0.00 | 0.00 | 72 | 1008.9 |
| 20260504110148 | 48 | 106 | 0.0 | 0.0 | 0.00 | 0.00 | 0.00 | 70 | 1008.7 |
| 20260504100615 | 49 | 100 | 0.0 | 0.0 | 0.00 | 0.00 | 0.00 | 70 | 1009.0 |
| 20260504100113 | 49 | 95 | 0.0 | 1.0 | 0.00 | 0.00 | 0.00 | 70 | 1008.9 |